FW7079 Weather Reports


Display with metric or nautical units.
time (UTC)temp
F
wind
direction
speed
MPH
gust
MPH
rain 1hr
in
rain 24hr
in
rain mn
in
humidity
%
barometer
mb
20260506101553 48 0 0.0 1.0 0.00 0.00 0.00 81 1016.4
20260506100051 48 0 0.0 1.0 0.00 0.00 0.00 81 1016.4
20260506094552 48 0 0.0 1.0 0.00 0.00 0.00 81 1015.8
20260506093112 48 0 0.0 2.0 0.00 0.00 0.00 81 1015.5
20260506091551 48 0 0.0 1.0 0.00 0.00 0.00 81 1015.4
20260506090056 48 176 0.0 1.0 0.00 0.00 0.00 80 1015.1
20260506084554 48 0 0.0 3.0 0.00 0.00 0.00 80 1015.4
20260506083055 48 0 0.0 3.0 0.00 0.00 0.00 81 1014.6
20260506081553 48 278 0.0 2.0 0.00 0.00 0.00 81 1014.4
20260506080111 48 29 0.0 2.0 0.00 0.00 0.00 79 1014.0
20260506073111 48 101 2.0 0.0 0.00 0.00 0.00 78 1013.8
20260506071557 49 11 0.0 3.0 0.00 0.00 0.00 77 1013.7
20260506061601 49 315 0.0 1.0 0.00 0.00 0.00 76 1013.8
20260506044556 49 113 1.0 2.0 0.00 0.00 0.00 75 1013.8
20260506043053 49 0 0.0 3.0 0.00 0.00 0.00 76 1013.6
20260506041605 49 0 0.0 4.0 0.00 0.00 0.00 77 1013.6
20260506040100 49 0 0.0 2.0 0.00 0.00 0.00 79 1013.6
20260506034551 49 0 0.0 3.0 0.00 0.00 0.00 80 1013.5
20260506033052 49 98 1.0 4.0 0.00 0.00 0.00 81 1013.0
20260506031556 49 162 0.0 4.0 0.00 0.00 0.00 81 1012.8
20260506030054 49 196 0.0 3.0 0.00 0.00 0.00 82 1012.9
20260506024555 49 215 0.0 3.0 0.00 0.00 0.00 83 1013.0
20260506023057 49 0 0.0 3.0 0.00 0.00 0.00 84 1013.1
20260506021553 49 0 0.0 2.0 0.00 0.00 0.00 84 1012.9
20260506020117 50 0 0.0 3.0 0.00 0.00 0.00 83 1012.8
20260506014554 50 0 0.0 2.0 0.00 0.00 0.00 82 1012.5
20260506013055 50 11 0.0 2.0 0.00 0.00 0.00 81 1012.5
20260506011552 50 168 0.0 4.0 0.00 0.00 0.00 81 1012.1
20260506010050 50 0 0.0 4.0 0.00 0.00 0.00 80 1011.8
20260506004550 50 303 0.0 3.0 0.00 0.00 0.00 81 1011.1
20260506003049 51 12 0.0 3.0 0.00 0.00 0.00 80 1011.0
20260506001602 51 0 0.0 5.0 0.00 0.00 0.00 80 1010.9
20260506000119 51 324 0.0 4.0 0.00 0.00 0.00 79 1010.8
20260505234552 51 259 1.0 6.0 0.00 0.00 0.00 78 1010.9
20260505233053 52 0 0.0 4.0 0.00 0.00 0.00 77 1011.4
20260505231558 52 0 1.0 2.0 0.00 0.00 0.00 76 1010.8
20260505230052 53 223 0.0 7.0 0.00 0.00 0.00 76 1010.5
20260505224554 53 0 0.0 4.0 0.00 0.00 0.00 76 1010.4
20260505223053 53 202 1.0 3.0 0.00 0.00 0.00 77 1010.4
20260505221557 53 288 1.0 4.0 0.00 0.00 0.00 77 1010.0
20260505220106 54 242 1.0 9.0 0.00 0.00 0.00 76 1010.0
20260505214602 54 0 1.0 5.0 0.00 0.00 0.00 76 1009.3
20260505213053 54 158 1.0 4.0 0.00 0.00 0.00 76 1009.4
20260505211631 55 304 1.0 3.0 0.00 0.00 0.00 76 1008.7
20260505210054 54 223 1.0 4.0 0.00 0.00 0.00 77 1008.8
20260505204610 55 274 0.0 2.0 0.00 0.00 0.00 76 1010.0
20260505203052 55 259 1.0 6.0 0.00 0.00 0.00 76 1009.1
20260505201552 55 282 1.0 5.0 0.00 0.00 0.00 75 1008.8
20260505200051 55 0 0.0 5.0 0.00 0.00 0.00 78 1009.0
20260505194549 55 207 1.0 6.0 0.00 0.00 0.00 79 1009.0
20260505193052 55 259 2.0 4.0 0.00 0.00 0.00 80 1008.9
20260505191552 55 275 1.0 4.0 0.00 0.00 0.00 80 1008.6
20260505190050 56 247 1.0 4.0 0.00 0.00 0.00 80 1008.7
20260505184552 57 44 1.0 7.0 0.00 0.00 0.00 80 1008.4
20260505183051 57 259 0.0 3.0 0.00 0.00 0.00 80 1008.3
20260505181639 57 240 1.0 7.0 0.00 0.00 0.00 80 1007.8
20260505174553 57 46 1.0 6.0 0.00 0.00 0.00 81 1007.5
20260505173053 57 283 1.0 5.0 0.00 0.00 0.00 82 1007.3
20260505171559 57 11 0.0 2.0 0.00 0.00 0.00 82 1007.3
20260505170054 57 223 1.0 5.0 0.00 0.00 0.00 81 1007.0
20260505164551 57 0 0.0 6.0 0.00 0.00 0.00 83 1006.6
20260505163052 58 0 1.0 6.0 0.00 0.00 0.00 82 1006.1
20260505161553 59 348 1.0 8.0 0.00 0.00 0.00 82 1005.6
20260505153056 65 0 0.0 6.0 0.00 0.00 0.00 80 1004.1
20260505151551 68 320 0.0 7.0 0.00 0.00 0.00 83 1003.6
20260505124554 66 207 0.0 1.0 0.00 0.00 0.00 88 1001.9
20260505123059 65 0 0.0 1.0 0.00 0.00 0.00 87 1002.0
20260505121557 66 0 0.0 0.0 0.00 0.00 0.00 87 1001.6
20260505120111 66 0 0.0 0.0 0.00 0.00 0.00 86 1001.6
20260505114554 66 0 0.0 0.0 0.00 0.00 0.00 85 1001.2
20260505113052 67 0 0.0 0.0 0.00 0.00 0.00 84 1000.7
20260505111552 68 0 0.0 0.0 0.00 0.00 0.00 82 1000.6
20260505110112 69 0 0.0 0.0 0.00 0.00 0.00 80 1000.1